Regional Weather Roundup
Issued by NWS

Home | Current Version | Previous Version | Text Only | Print | Product List | Glossary On
Versions: 1 2 3 4 5 6 7 8 9 10 11 12 13 14 15 16 17 18 19 20 21 22 23 24 25 26 27 28 29 30 31 32 33 34 35 36 37 38 39 40 41 42 43 44 45 46 47 48 49 50
000
ASUS43 KBIS 311820
RWRND

NORTH DAKOTA REGIONAL WEATHER ROUNDUP
NATIONAL WEATHER SERVICE BISMARCK ND
1200 PM CST SAT JAN 31 2015

NOTE: "FAIR" INDICATES FEW OR NO CLOUDS BELOW 12,000 FEET WITH NO
SIGNIFICANT WEATHER AND/OR OBSTRUCTIONS TO VISIBILITY.


NDZ001>003-009>011-017-311900-
NORTHWEST NORTH DAKOTA

CITY           SKY/WX    TMP DP  RH WIND       PRES   REMARKS
WILLISTON      SNOW      10   5  80 NE13G23   30.31R VSB 1/2 WCI  -5
6HR MIN TEMP:  10; 6HR MAX TEMP:  21; 6HR PCP:  0.02;

MINOT          LGT SNOW   4  -2  76 NE14      30.38S VSB 3/4 WCI -14
MINOT AFB      LGT SNOW   3   0  85 NE14      30.39S FOG     WCI -15
$$

NDZ018>021-031>035-040>046-311900-
SOUTHWEST NORTH DAKOTA

CITY           SKY/WX    TMP DP  RH WIND       PRES   REMARKS
BISMARCK       CLOUDY    14   7  73 NE21      30.29S WCI  -4
6HR MIN TEMP:  12; 6HR MAX TEMP:  22; 6HR PCP: TRACE;

DICKINSON      LGT SNOW  17  13  84 E21G26    30.14S FOG     WCI   0
GARRISON         N/A      8   0  69 E13G23    30.30F WCI  -8
6HR MIN TEMP:   8; 6HR MAX TEMP:  19;

HETTINGER ARPT FOG       19  17  92 E18       30.12F VSB 1/2 WCI   4
$$

NDZ004>008-012>016-024-026-027-054-311900-
NORTHEAST NORTH DAKOTA

CITY           SKY/WX    TMP DP  RH WIND       PRES   REMARKS
GRAND FORKS    PTSUNNY    3  -7  63 N22G29    30.46F WCI -19
GRND FRKS AFB  MOSUNNY    3  -9  57 N18G28    30.46S WCI -17
DEVILS LAKE    PTSUNNY    0 -11  60 NE17      30.40S WCI -21
$$

NDZ022-023-025-028>030-036>039-047>053-311900-
SOUTHEAST NORTH DAKOTA

CITY           SKY/WX    TMP DP  RH WIND       PRES   REMARKS
FARGO          FAIR      13  -1  54 N18G25    30.37F WCI  -4
6HR MIN TEMP:   9; 6HR MAX TEMP:  15;

JAMESTOWN      CLOUDY    11   1  64 NE20      30.32S WCI  -7
$$




USA.gov is the U.S. government's official web portal to all federal, state and local government web resources and services.